This demonstration page uses our WeatherBlox Daily Observations layout. Learn more.

38.88101, -77.10428

Hourly Observations for August 27, 2018

Temp ( °F °C ) Dew Point ( °F °C ) Humidity (%) Winds ( mph kmh ) Pressure ( in mb ) Visibility ( mi km ) Precip ( " mm )
12:52 am 00:52 Mostly Cloudy 78 25.6 71 21.7 79 79 S 8 13 30.11 1020 10 16.0934 0 0
1:52 am 01:52 Mostly Cloudy 77 25 72 22.2 85 85 S 5 7 30.1 1019 10 16.0934 0 0
2:52 am 02:52 Mostly Cloudy 76 24.4 71 21.7 85 85 S 3 6 30.08 1019 10 16.0934 0 0
3:52 am 03:52 Mostly Cloudy 76 24.4 72 22.2 88 88 SSW 5 7 30.09 1019 10 16.0934 0 0
4:52 am 04:52 Mostly Cloudy 75 23.9 72 22.2 90 90 S 5 7 30.09 1019 10 16.0934 0 0
5:52 am 05:52 Mostly Cloudy 75 23.9 72 22.2 90 90 Calm 30.11 1020 10 16.0934 0 0
6:52 am 06:52 Partly Cloudy 75 23.9 72 22.2 90 90 S 6 9 30.11 1020 9 14.48406 0 0
7:52 am 07:52 Mostly Cloudy 76 24.4 73 22.8 91 91 S 7 11 30.12 1020 9 14.48406 0 0
8:52 am 08:52 Sunny 78 25.6 73 22.8 85 85 S 6 9 30.13 1020 9 14.48406 0 0
9:52 am 09:52 Mostly Sunny 82 27.8 72 22.2 72 72 E 3 6 30.14 1021 10 16.0934 0 0
10:52 am 10:52 Partly Cloudy 84 28.9 73 22.8 70 70 SE 3 6 30.15 1021 10 16.0934 0 0
11:52 am 11:52 Mostly Cloudy 88 31.1 72 22.2 59 59 ENE 3 6 30.14 1021 10 16.0934 0 0
12:52 pm 12:52 Mostly Cloudy 88 31.1 72 22.2 59 59 VRB 3 6 30.13 1020 10 16.0934 0 0
1:52 pm 13:52 Mostly Cloudy 91 32.8 73 22.8 56 56 E 3 6 30.11 1020 10 16.0934 0 0
2:52 pm 14:52 Mostly Cloudy 91 32.8 75 23.9 59 59 S 8 13 30.1 1019 10 16.0934 0 0
3:52 pm 15:52 Partly Cloudy 90 32.2 75 23.9 62 62 S 10 17 30.08 1019 10 16.0934 0 0
4:52 pm 16:52 Partly Cloudy 90 32.2 74 23.3 59 59 S 9 15 30.07 1018 10 16.0934 0 0
5:52 pm 17:52 Mostly Cloudy 90 32.2 75 23.9 62 62 SW 6 9 30.08 1019 10 16.0934 0 0
6:52 pm 18:52 Mostly Cloudy 89 31.7 73 22.8 59 59 SW 9 15 30.08 1019 10 16.0934 0 0
7:52 pm 19:52 Mostly Cloudy 86 30 75 23.9 70 70 S 6 9 30.08 1019 10 16.0934 0 0
8:52 pm 20:52 Mostly Cloudy 83 28.3 76 24.4 79 79 S 7 11 30.09 1019 10 16.0934 0 0
9:52 pm 21:52 Mostly Cloudy 83 28.3 76 24.4 79 79 S 6 9 30.1 1019 10 16.0934 0 0
10:52 pm 22:52 Mostly Cloudy 81 27.2 76 24.4 85 85 S 7 11 30.09 1019 9 14.48406 0 0
11:52 pm 23:52 Mostly Cloudy 81 27.2 76 24.4 85 85 S 7 11 30.09 1019 8 12.87472 0 0

Powered by AerisWeather